Back to catalog

BREEZE-M R/B

AliveHEO
NORAD 28998·ROCKET BODY·🇷🇺 Russia

Launched Jun 6, 2003 from Baikonur Cosmodrome

Loading…

Next Passes (next 24 hours)

TLE

AgingSource: Space-Track

Epoch: Aug 30, 2026, 18:15 UTC

1 28998U 03024C   26242.76103580 -.00000051  00000-0  00000+0 0  9997
2 28998  16.7268 124.3462 5089861  86.8140  37.6877  1.82403886 87546

Track BREEZE-M R/B in real time with AllMySat

Download on the App Store